SCP
0 0 -0 -0 0 0 0 -0 0 0 -0 -0 -0 -0 -0 -0 -0 -0 -0 -0 -0 -0 0 -0 -0 -0 0 -0 -0 -0 -0 -0 -0 -0 -0 -0 -0 0 0 -0 0 0 -0 -0 -0 -0 -0 -0 -0
0 -0 -0 0 -0 0 0 0 -0 -0 0 -0 -0 -0 -0 -0 -0 -0 -0 -0 -0 0 0 0 0 0 0 0 0 -0 -0 -0 -0 -0 -0 0 0 0 0 0 0 0 0 -0 -0 -0 -0 -0 0
-0 -0 0 0 0 0 0 -0 -0 0 -0 -0 -0 -0 -0 -0 -0 -0 -0 -0 0 0 0 0 0 0 0 0 -0 -0 -0 -0 -0 -0 -0 -0 -0 -0 -0 -0 -0 0 0 -0 -0 -0 0 0 0
0 0 0 0 -0 -0 -0 -0 0 -0 -0 -0 -0 -0 -0 -0 -0 0 0 0 -0 -0 0 0 0 0 0 0 0 -0 -0 -0 -0 -0 -0 -0 -0 -0 -0 -0 -0 -0 -0 -0 -0 -0 -0 -0 -0
-0 0 0 0 -0 -0 -0 0 -0 -0 -0 -0 -0 -0 -0 -0 -0 0 0 -0 -0 -0 -0 -0 0 0 0 0 -0 -0 -0 -0 -0 -0 -0 -0 -0 -0 -0 -0 -0 -0 -0 -0 -0 -0 -0 -0 -0
-0 0 -0 -0 -0 0 0 -0 -0 0 -0 -0 -0 -0 -0 -0 -0 0 0 -0 -0 -0 -0 -0 -0 0 0 0 0 -0 -0 -0 -0 -0 -0 -0 -0 -0 -0 -0 -0 -0 -0 -0 -0 -0 -0 -0 -0
-0 0 -0 -0 0 -0 -0 -0 -0 -0 0 -0 -0 -0 0 -0 -0 0 0 -0 -0 -0 -0 -0 -0 -0 -0 -0 -0 0 -0 -0 -0 -0 -0 -0 -0 -0 -0 -0 -0 -0 -0 -0 -0 -0 -0 -0 -0
0 0 -0 -0 -0 -0 -0 0 -0 0 -0 -0 -0 -0 0 -0 -0 0 -0 -0 -0 -0 -0 -0 -0 -0 0 0 0 0 0 0 -0 -0 -0 -0 -0 -0 -0 -0 -0 0 -0 -0 -0 -0 -0 -0 -0
0 -0 -0 -0 0 0 -0 -0 -0 -0 0 -0 0 0 -0 -0 -0 0 -0 -0 0 -0 -0 -0 -0 -0 0 0 0 0 0 0 0 -0 -0 0 0 0 0 0 0 0 0 0 0 0 0 0 -0
0 0 -0 -0 0 0 -0 -0 -0 0 -0 -0 -0 -0 -0 -0 0 -0 -0 -0 -0 -0 -0 0 -0 0 -0 0 0 0 0 0 0 0 0 0 0 0 0 0 0 0 0 0 0 0 0 0 0
0 -0 0 0 -0 -0 0 -0 -0 -0 0 -0 -0 -0 -0 -0 0 0 -0 -0 -0 0 0 -0 0 0 0 0 0 0 0 0 0 0 0 -0 -0 -0 0 0 0 0 0 0 0 0 0 0 0
0 0 0 0 0 0 0 0 0 0 0 -0 -0 -0 -0 -0 0 0 0 0 -0 0 0 0 0 0 0 0 0 -0 0 0 0 0 0 0 0 0 0 0 0 0 0 0 1 0 1 0 0
-0 0 0 -0 0 0 0 -0 0 0 0 -0 -0 -0 -0 -0 0 -0 0 -0 0 0 0 0 0 0 0 0 0 0 0 0 0 0 0 0 0 0 0 0 0 0 0 0 0 0 0 0 0
0 0 0 0 0 0 0 -0 0 -0 -0 -0 -0 -0 -0 0 0 0 0 0 0 0 0 0 0 0 0 0 1 0 1 0 0 0 1 1 1 1 1 0 0 0 0 1 0 0 1 1 1
0 0 0 -0 0 -0 -0 -0 0 -0 0 0 0 0 0 0 0 0 0 0 0 0 0 0 0 0 0 0 1 1 1 1 1 1 1 1 1 1 1 1 1 0 0 1 1 1 0 1 -0
0 -0 -0 -0 0 0 0 0 0 0 0 0 0 0 0 0 0 0 0 0 0 0 0 0 1 1 1 1 1 1 2 2 2 2 1 1 1 1 1 1 1 1 1 1 1 1 0 0 0
0 0 -0 -0 0 0 0 0 0 0 0 0 0 0 0 0 0 0 0 0 0 1 1 1 1 1 1 2 3 2 2 2 1 1 1 1 1 0 0 1 1 0 1 1 1 0 1 1 1
-0 -0 -0 0 0 0 0 0 0 0 0 0 0 0 0 0 0 0 0 0 0 0 1 1 1 2 2 1 2 1 2 1 0 0 0 0 0 0 0 0 0 0 1 1 0 0 0 1 1
-0 0 0 0 0 0 0 -0 0 0 0 0 0 0 0 0 0 0 0 0 0 0 0 1 1 2 2 2 2 2 1 1 0 0 0 0 0 0 0 0 0 0 0 1 1 0 0 0 0
0 0 0 0 0 0 0 0 -0 0 0 0 0 0 0 0 0 0 0 0 0 0 0 0 1 1 1 1 1 1 1 1 0 0 0 0 0 0 0 0 0 0 0 0 0 0 0 0 0
0 0 -0 0 0 0 0 -0 -0 0 0 0 0 0 0 0 0 0 0 0 0 0 0 0 0 0 1 1 1 1 0 0 0 0 0 0 0 0 0 0 0 0 0 0 0 0 0 0 0
-0 -0 0 0 0 0 -0 0 -0 0 0 0 0 0 0 0 0 0 0 0 0 0 0 0 0 0 0 0 0 1 0 0 0 0 0 0 0 0 0 0 0 0 0 0 0 0 0 0 0
0 0 0 0 0 0 0 0 0 0 0 0 0 0 0 0 0 0 0 0 0 0 0 0 0 0 0 0 0 0 0 0 0 0 0 0 0 0 0 0 0 0 0 0 0 0 0 0 0
0 0 0 0 0 0 -0 -0 0 0 0 0 0 0 0 0 0 0 0 0 0 0 0 0 0 0 0 0 0 0 0 0 0 0 0 0 0 0 0 0 0 0 0 0 0 0 0 0 0
0 0 0 0 0 0 0 -0 -0 0 0 0 0 0 1 0 0 0 0 0 0 0 0 0 0 0 0 0 0 0 -0 0 0 0 0 0 0 0 0 0 0 0 0 0 0 0 0 0 0
-0 0 0 0 -0 -0 0 0 0 0 0 0 0 0 0 1 0 0 0 0 0 0 0 0 0 0 0 0 0 -0 -0 0 0 0 0 0 0 0 0 0 0 0 0 0 0 0 0 0 0
0 0 0 0 0 0 -0 0 0 0 0 0 0 0 0 1 0 0 0 0 0 0 0 0 0 0 0 0 0 0 0 0 0 0 0 0 0 0 0 0 0 0 0 0 0 0 0 0 0
0 0 0 0 0 0 0 0 0 0 0 0 0 0 0 0 0 0 0 0 0 0 0 0 0 0 0 0 0 0 0 0 0 0 0 0 0 0 0 0 0 0 0 0 0 0 0 0 0
0 0 0 0 0 0 0 0 0 0 0 0 0 0 0 0 0 0 0 0 0 0 0 0 0 0 0 0 0 0 0 0 0 0 0 0 0 0 0 0 0 0 0 0 0 0 0 0 0
0 -0 0 0 0 0 0 0 0 0 0 0 0 0 0 0 0 0 0 0 0 0 0 0 0 0 0 0 0 0 0 0 0 1 0 0 0 0 0 0 0 0 0 0 0 0 0 0 0
Wind_Speed_500mb
24 20 26 19 10 10 25 12 18 30 39 43 62 47 50 56 27 24 49 40 40 33 29 27 25 24 24 24 20 16 14 12 13 15 16 17 17 18 19 20 20 19 18 19 21 27 25 20 15
19 11 26 19 9 5 14 23 37 34 32 60 63 61 62 51 65 57 51 42 32 33 30 28 27 26 24 21 18 16 13 13 14 15 16 16 17 17 19 20 20 20 21 21 23 23 19 13 10
13 6 22 13 5 5 17 39 30 21 38 53 49 47 34 48 48 49 47 42 39 32 30 28 27 26 25 22 20 18 17 16 16 16 17 17 17 15 15 15 15 15 14 14 15 15 12 6 4
14 24 25 19 34 40 23 28 33 28 61 67 63 34 47 43 54 50 46 41 43 29 31 30 27 24 23 22 21 20 18 17 15 15 15 15 15 14 11 9 8 7 6 6 7 8 6 4 3
18 22 24 34 34 21 22 17 57 47 59 57 60 40 47 46 48 45 42 43 38 28 29 26 23 21 20 19 18 17 16 15 14 14 14 14 14 13 11 8 4 0 2 4 7 11 11 12 12
30 31 27 28 30 21 18 45 79 38 55 58 67 59 51 46 45 41 40 40 31 26 27 22 21 19 16 15 14 14 14 13 13 13 14 14 14 14 13 10 7 4 6 10 13 16 19 22 23
28 23 34 33 13 20 19 75 71 54 63 65 67 48 43 44 39 40 40 39 30 29 18 22 19 17 15 13 12 12 11 11 11 11 11 13 15 17 17 15 15 14 11 11 13 17 21 23 25
34 25 42 28 30 34 45 36 74 37 7 61 33 25 42 48 43 38 37 33 32 26 20 15 15 15 11 12 9 9 9 8 7 8 11 16 11 24 22 18 20 22 19 17 15 15 16 18 19
23 24 28 24 22 8 65 38 31 40 14 45 28 51 55 49 43 39 37 33 29 25 21 13 8 11 8 9 6 6 5 6 7 8 10 11 22 24 29 24 29 28 27 22 20 21 18 15 11
28 23 33 27 39 14 58 71 51 43 35 49 58 52 49 44 41 38 34 34 27 26 22 16 27 15 24 3 16 12 10 15 14 17 21 8 23 15 13 32 30 27 29 31 24 30 27 25 14
37 26 8 9 48 61 14 68 78 71 10 31 52 53 47 42 36 32 29 28 27 24 20 22 18 26 15 7 8 11 15 14 14 13 22 9 13 10 15 26 31 24 29 33 25 30 29 28 24
26 14 20 12 26 29 40 38 58 87 38 43 47 47 44 39 33 28 28 25 32 26 23 11 8 16 24 20 9 5 8 6 9 19 19 19 18 20 20 16 18 26 33 34 29 31 37 28 25
28 9 7 11 23 67 31 62 58 64 54 49 46 40 38 35 25 23 26 23 23 20 16 11 12 8 12 16 14 9 12 3 9 8 15 21 20 17 21 20 23 23 25 29 28 28 30 33 36
8 6 5 13 16 60 74 81 32 38 45 46 43 37 31 27 21 21 20 20 12 26 19 4 8 13 6 11 15 19 8 9 11 12 15 20 21 20 24 21 21 25 25 32 32 33 38 39 38
8 17 10 15 8 21 20 30 34 33 38 37 35 32 30 27 23 19 16 14 12 11 12 2 7 11 13 16 8 7 5 7 5 18 22 16 17 24 27 28 22 31 34 37 31 37 50 53 55
21 19 22 25 18 4 8 17 35 34 34 34 32 29 27 24 21 21 21 17 16 13 8 6 16 2 8 13 14 9 15 18 18 22 28 22 28 35 30 29 29 42 39 37 45 44 48 54 58
22 24 28 32 32 12 18 13 33 32 29 32 28 27 27 24 21 21 19 18 16 15 15 7 16 15 9 15 19 21 21 18 27 31 35 30 35 40 37 28 36 43 42 42 49 51 54 57 61
31 32 25 22 32 28 18 12 28 31 31 30 26 28 27 26 21 20 20 19 17 13 13 13 12 17 19 9 12 3 2 11 12 14 18 16 21 24 25 23 29 35 33 36 40 45 50 52 57
38 23 25 21 22 11 21 21 34 35 29 32 30 31 29 28 22 20 19 20 18 15 17 17 19 23 18 16 9 15 12 16 25 21 18 18 20 23 26 29 22 30 32 36 40 40 42 44 47
33 24 21 6 17 1 15 29 36 37 29 32 38 36 34 33 24 21 20 18 17 16 16 18 23 31 20 13 14 15 14 9 6 19 27 24 22 23 21 25 29 24 25 27 34 35 39 35 36
19 24 24 32 6 1 23 33 25 27 28 35 35 38 42 41 33 27 23 20 19 18 17 20 24 25 25 15 13 15 21 12 10 12 15 26 30 27 28 25 27 26 22 29 31 33 34 36 31
25 30 33 10 7 19 34 23 30 39 32 31 40 39 41 38 36 30 27 24 21 21 22 26 27 25 24 23 20 20 10 5 16 10 19 22 37 37 28 29 27 28 23 29 28 35 35 32 35
29 30 30 10 20 25 28 18 28 36 34 33 37 35 37 38 37 32 28 26 23 23 22 26 28 27 27 23 22 19 20 13 10 10 24 22 27 35 30 32 30 35 29 29 24 27 38 36 35
17 6 9 13 20 23 35 31 25 17 32 28 43 46 42 41 36 33 30 27 25 25 22 25 27 26 25 23 20 17 13 11 10 19 14 13 12 26 30 31 33 35 38 39 33 28 31 35 38
9 14 14 20 21 26 34 35 27 26 21 18 10 48 49 44 39 36 36 31 30 29 23 22 21 21 17 16 17 19 18 17 19 15 10 9 13 19 29 30 33 35 38 38 29 33 34 34 34
31 23 20 24 22 21 6 13 15 28 29 20 20 16 31 48 41 40 38 33 32 31 27 23 20 18 13 11 13 16 19 11 6 9 8 11 4 15 22 23 28 33 32 38 39 33 31 40 37
20 19 21 20 24 26 26 12 22 23 22 15 10 8 15 40 37 40 38 37 36 35 34 29 24 20 15 10 7 11 18 19 5 6 15 8 14 10 22 24 26 31 32 35 42 46 42 36 37
17 23 16 10 22 30 26 33 15 20 17 18 7 7 12 19 28 37 39 43 38 34 32 28 26 21 18 12 5 1 2 4 5 4 9 14 19 29 24 25 29 32 30 32 34 40 42 31 39
22 22 23 23 18 19 20 6 14 16 9 7 11 10 17 21 26 36 40 41 35 34 32 29 25 21 20 18 13 14 5 4 4 9 12 18 24 26 28 27 32 32 32 34 31 35 35 42 47
30 28 17 18 27 22 21 23 16 7 2 16 14 15 26 33 34 38 44 45 43 48 40 38 32 26 21 17 14 9 6 6 8 11 19 29 34 36 36 36 40 37 39 37 31 33 36 41 52
Wind_Direction_500mb
303 328 340 279 260 108 272 61 268 104 79 79 71 69 64 55 66 93 107 106 111 116 118 116 110 104 108 112 110 104 92 79 74 69 61 58 60 66 76 84 91 98 102 106 114 125 128 120 102
304 269 264 285 41 59 254 265 79 89 98 90 89 81 69 74 90 101 108 115 119 115 113 113 111 109 108 109 109 105 94 83 74 66 65 65 68 74 85 88 91 94 100 108 123 134 136 127 101
292 281 267 212 101 195 198 102 101 114 120 106 87 73 75 88 96 111 115 116 115 120 110 111 110 110 108 106 105 103 97 87 77 70 64 63 67 76 85 91 98 102 105 114 132 148 154 148 103
290 264 239 236 192 205 92 101 121 109 99 101 103 82 85 100 112 117 119 117 121 127 121 120 119 113 108 105 102 97 90 83 72 64 62 63 65 68 73 81 92 104 113 133 165 182 204 242 289
260 270 256 264 147 95 96 144 49 30 89 99 105 109 99 113 120 120 122 122 127 130 124 122 120 115 111 109 105 99 91 82 73 63 55 54 56 59 62 64 63 30 247 232 228 234 245 259 272
255 243 266 260 111 108 111 83 93 113 107 111 109 110 110 125 127 127 127 126 127 125 124 125 124 121 116 110 104 100 96 88 76 66 59 55 50 45 41 40 33 354 291 272 263 259 260 263 268
256 254 264 289 55 142 115 87 83 42 259 107 113 113 130 136 135 133 130 124 125 133 124 129 128 127 123 115 104 98 89 78 69 61 52 46 44 34 28 23 25 10 346 312 290 276 270 270 273
254 279 277 268 209 123 90 98 129 136 332 131 129 131 147 143 142 140 135 131 132 130 132 122 109 111 120 97 81 79 76 69 61 51 44 32 35 24 8 10 359 353 348 342 328 318 304 288 281
243 271 257 257 75 328 112 115 137 136 62 71 106 139 139 143 144 145 141 138 137 138 142 151 128 45 72 352 52 15 32 27 13 15 42 41 22 6 343 340 349 347 340 342 347 350 338 321 310
233 244 275 73 91 44 248 140 147 81 29 95 111 127 139 145 150 148 150 149 144 148 152 130 154 123 152 245 329 359 25 357 8 7 345 8 9 317 300 319 342 338 344 341 324 341 343 341 1
220 260 194 331 122 186 105 61 97 85 40 125 132 140 147 149 152 152 156 156 151 148 132 150 177 155 129 224 325 352 326 351 338 320 290 281 270 249 305 317 318 326 333 338 330 332 323 335 343
275 349 12 8 39 58 23 125 102 110 210 142 141 141 146 151 154 160 167 147 144 135 134 107 170 214 183 173 173 217 227 267 304 307 316 332 347 339 316 305 293 311 306 315 307 315 313 314 290
256 127 330 270 88 68 349 297 124 156 171 133 131 136 141 140 125 101 105 107 103 131 137 151 116 155 215 204 180 215 235 260 239 271 312 311 277 269 281 289 293 314 316 304 293 290 285 281 282
281 107 229 275 79 127 149 234 114 120 128 131 129 127 125 125 118 106 108 110 110 134 137 170 147 265 199 286 216 199 229 250 304 314 282 263 292 288 286 300 296 292 297 299 292 289 282 274 270
329 261 202 251 169 146 163 168 124 139 131 125 125 119 122 121 128 134 122 127 117 165 183 165 64 266 277 196 240 311 220 241 241 239 258 259 269 280 279 288 286 279 275 273 279 274 274 268 271
248 239 237 210 214 200 285 355 127 150 140 137 136 135 133 131 132 130 131 133 138 147 153 167 152 130 297 198 188 141 203 199 223 238 243 248 263 273 276 278 280 281 277 284 270 269 277 287 302
224 253 233 259 171 211 185 237 153 169 162 154 152 153 146 136 133 131 132 132 131 149 133 145 161 143 108 143 168 192 212 226 238 244 260 263 268 275 290 294 283 283 289 283 279 280 282 283 281
214 211 250 242 179 192 219 239 140 177 182 164 176 175 162 159 152 145 140 136 132 139 160 165 152 140 163 169 165 146 186 259 297 276 270 296 303 322 326 322 325 324 319 309 304 300 297 297 299
271 296 223 255 83 164 205 243 175 181 189 187 192 178 179 163 155 154 150 141 135 142 144 138 132 130 135 132 159 140 41 30 16 4 2 352 348 351 351 347 354 353 353 345 338 329 321 305 309
269 272 286 174 108 160 280 258 257 172 196 224 189 187 187 153 165 168 159 148 138 139 137 135 137 134 120 115 124 121 122 108 42 1 354 360 359 359 360 353 358 11 3 341 350 349 341 339 339
260 256 258 266 130 303 265 259 246 209 192 217 205 195 188 170 178 176 170 161 148 139 139 135 126 132 128 104 84 74 86 106 118 11 345 352 2 7 2 4 4 6 8 348 355 353 353 346 343
247 230 253 302 185 256 211 247 228 220 193 205 217 196 184 170 175 176 174 167 161 149 147 137 125 117 125 116 124 121 146 49 82 342 29 6 3 4 7 9 10 13 14 354 354 357 5 359 356
249 332 214 241 253 267 267 234 273 174 188 209 200 198 184 173 172 179 180 172 164 154 147 140 132 120 112 102 111 125 116 73 60 73 46 26 4 346 10 18 17 13 13 1 0 4 1 358 358
57 289 285 257 271 257 251 262 275 251 178 204 196 199 190 181 174 178 179 173 170 162 153 146 134 122 110 99 93 87 100 130 79 58 92 51 350 337 8 15 18 13 12 15 23 12 5 350 348
281 256 242 234 233 243 247 228 238 131 112 62 176 184 176 175 176 178 174 178 178 172 166 158 142 126 113 97 87 88 83 83 105 104 73 101 10 343 354 7 3 5 1 359 19 8 3 339 339
210 235 254 269 282 309 80 285 285 120 130 123 126 137 179 174 179 180 181 187 187 184 179 175 162 151 145 128 112 105 89 88 46 68 71 19 27 6 338 353 352 354 355 348 356 0 356 343 349
273 251 257 279 300 287 282 216 127 114 97 85 114 168 199 164 174 179 183 192 190 187 188 190 183 180 170 168 148 127 151 162 242 44 75 287 310 340 315 349 341 342 338 342 335 344 350 349 337
254 284 292 208 254 267 270 263 104 156 151 127 131 179 185 177 184 186 191 193 186 194 196 188 204 196 188 192 176 254 17 62 1 354 333 336 333 326 336 330 325 319 321 333 335 340 349 322 322
222 232 247 275 290 302 297 276 140 109 105 121 136 188 176 189 203 194 194 183 196 199 198 192 197 204 203 191 191 197 172 232 281 313 329 320 310 300 300 306 308 304 303 298 307 323 331 312 318
234 258 236 223 240 248 260 267 62 97 304 160 179 193 190 190 200 202 193 188 201 203 203 199 194 200 209 210 208 220 233 248 279 282 277 291 291 298 300 300 300 304 300 295 300 314 311 308 314
Wind_Speed_850mb
24 20 26 19 10 10 25 12 18 30 39 43 62 47 50 56 27 24 49 40 40 33 29 27 25 24 24 24 20 16 14 12 13 15 16 17 17 18 19 20 20 19 18 19 21 27 25 20 15
19 11 26 19 9 5 14 23 37 34 32 60 63 61 62 51 65 57 51 42 32 33 30 28 27 26 24 21 18 16 13 13 14 15 16 16 17 17 19 20 20 20 21 21 23 23 19 13 10
13 6 22 13 5 5 17 39 30 21 38 53 49 47 34 48 48 49 47 42 39 32 30 28 27 26 25 22 20 18 17 16 16 16 17 17 17 15 15 15 15 15 14 14 15 15 12 6 4
14 24 25 19 34 40 23 28 33 28 61 67 63 34 47 43 54 50 46 41 43 29 31 30 27 24 23 22 21 20 18 17 15 15 15 15 15 14 11 9 8 7 6 6 7 8 6 4 3
18 22 24 34 34 21 22 17 57 47 59 57 60 40 47 46 48 45 42 43 38 28 29 26 23 21 20 19 18 17 16 15 14 14 14 14 14 13 11 8 4 0 2 4 7 11 11 12 12
30 31 27 28 30 21 18 45 79 38 55 58 67 59 51 46 45 41 40 40 31 26 27 22 21 19 16 15 14 14 14 13 13 13 14 14 14 14 13 10 7 4 6 10 13 16 19 22 23
28 23 34 33 13 20 19 75 71 54 63 65 67 48 43 44 39 40 40 39 30 29 18 22 19 17 15 13 12 12 11 11 11 11 11 13 15 17 17 15 15 14 11 11 13 17 21 23 25
34 25 42 28 30 34 45 36 74 37 7 61 33 25 42 48 43 38 37 33 32 26 20 15 15 15 11 12 9 9 9 8 7 8 11 16 11 24 22 18 20 22 19 17 15 15 16 18 19
23 24 28 24 22 8 65 38 31 40 14 45 28 51 55 49 43 39 37 33 29 25 21 13 8 11 8 9 6 6 5 6 7 8 10 11 22 24 29 24 29 28 27 22 20 21 18 15 11
28 23 33 27 39 14 58 71 51 43 35 49 58 52 49 44 41 38 34 34 27 26 22 16 27 15 24 3 16 12 10 15 14 17 21 8 23 15 13 32 30 27 29 31 24 30 27 25 14
37 26 8 9 48 61 14 68 78 71 10 31 52 53 47 42 36 32 29 28 27 24 20 22 18 26 15 7 8 11 15 14 14 13 22 9 13 10 15 26 31 24 29 33 25 30 29 28 24
26 14 20 12 26 29 40 38 58 87 38 43 47 47 44 39 33 28 28 25 32 26 23 11 8 16 24 20 9 5 8 6 9 19 19 19 18 20 20 16 18 26 33 34 29 31 37 28 25
28 9 7 11 23 67 31 62 58 64 54 49 46 40 38 35 25 23 26 23 23 20 16 11 12 8 12 16 14 9 12 3 9 8 15 21 20 17 21 20 23 23 25 29 28 28 30 33 36
8 6 5 13 16 60 74 81 32 38 45 46 43 37 31 27 21 21 20 20 12 26 19 4 8 13 6 11 15 19 8 9 11 12 15 20 21 20 24 21 21 25 25 32 32 33 38 39 38
8 17 10 15 8 21 20 30 34 33 38 37 35 32 30 27 23 19 16 14 12 11 12 2 7 11 13 16 8 7 5 7 5 18 22 16 17 24 27 28 22 31 34 37 31 37 50 53 55
21 19 22 25 18 4 8 17 35 34 34 34 32 29 27 24 21 21 21 17 16 13 8 6 16 2 8 13 14 9 15 18 18 22 28 22 28 35 30 29 29 42 39 37 45 44 48 54 58
22 24 28 32 32 12 18 13 33 32 29 32 28 27 27 24 21 21 19 18 16 15 15 7 16 15 9 15 19 21 21 18 27 31 35 30 35 40 37 28 36 43 42 42 49 51 54 57 61
31 32 25 22 32 28 18 12 28 31 31 30 26 28 27 26 21 20 20 19 17 13 13 13 12 17 19 9 12 3 2 11 12 14 18 16 21 24 25 23 29 35 33 36 40 45 50 52 57
38 23 25 21 22 11 21 21 34 35 29 32 30 31 29 28 22 20 19 20 18 15 17 17 19 23 18 16 9 15 12 16 25 21 18 18 20 23 26 29 22 30 32 36 40 40 42 44 47
33 24 21 6 17 1 15 29 36 37 29 32 38 36 34 33 24 21 20 18 17 16 16 18 23 31 20 13 14 15 14 9 6 19 27 24 22 23 21 25 29 24 25 27 34 35 39 35 36
19 24 24 32 6 1 23 33 25 27 28 35 35 38 42 41 33 27 23 20 19 18 17 20 24 25 25 15 13 15 21 12 10 12 15 26 30 27 28 25 27 26 22 29 31 33 34 36 31
25 30 33 10 7 19 34 23 30 39 32 31 40 39 41 38 36 30 27 24 21 21 22 26 27 25 24 23 20 20 10 5 16 10 19 22 37 37 28 29 27 28 23 29 28 35 35 32 35
29 30 30 10 20 25 28 18 28 36 34 33 37 35 37 38 37 32 28 26 23 23 22 26 28 27 27 23 22 19 20 13 10 10 24 22 27 35 30 32 30 35 29 29 24 27 38 36 35
17 6 9 13 20 23 35 31 25 17 32 28 43 46 42 41 36 33 30 27 25 25 22 25 27 26 25 23 20 17 13 11 10 19 14 13 12 26 30 31 33 35 38 39 33 28 31 35 38
9 14 14 20 21 26 34 35 27 26 21 18 10 48 49 44 39 36 36 31 30 29 23 22 21 21 17 16 17 19 18 17 19 15 10 9 13 19 29 30 33 35 38 38 29 33 34 34 34
31 23 20 24 22 21 6 13 15 28 29 20 20 16 31 48 41 40 38 33 32 31 27 23 20 18 13 11 13 16 19 11 6 9 8 11 4 15 22 23 28 33 32 38 39 33 31 40 37
20 19 21 20 24 26 26 12 22 23 22 15 10 8 15 40 37 40 38 37 36 35 34 29 24 20 15 10 7 11 18 19 5 6 15 8 14 10 22 24 26 31 32 35 42 46 42 36 37
17 23 16 10 22 30 26 33 15 20 17 18 7 7 12 19 28 37 39 43 38 34 32 28 26 21 18 12 5 1 2 4 5 4 9 14 19 29 24 25 29 32 30 32 34 40 42 31 39
22 22 23 23 18 19 20 6 14 16 9 7 11 10 17 21 26 36 40 41 35 34 32 29 25 21 20 18 13 14 5 4 4 9 12 18 24 26 28 27 32 32 32 34 31 35 35 42 47
30 28 17 18 27 22 21 23 16 7 2 16 14 15 26 33 34 38 44 45 43 48 40 38 32 26 21 17 14 9 6 6 8 11 19 29 34 36 36 36 40 37 39 37 31 33 36 41 52
Wind_Direction_850mb
303 328 340 279 260 108 272 61 268 104 79 79 71 69 64 55 66 93 107 106 111 116 118 116 110 104 108 112 110 104 92 79 74 69 61 58 60 66 76 84 91 98 102 106 114 125 128 120 102
304 269 264 285 41 59 254 265 79 89 98 90 89 81 69 74 90 101 108 115 119 115 113 113 111 109 108 109 109 105 94 83 74 66 65 65 68 74 85 88 91 94 100 108 123 134 136 127 101
292 281 267 212 101 195 198 102 101 114 120 106 87 73 75 88 96 111 115 116 115 120 110 111 110 110 108 106 105 103 97 87 77 70 64 63 67 76 85 91 98 102 105 114 132 148 154 148 103
290 264 239 236 192 205 92 101 121 109 99 101 103 82 85 100 112 117 119 117 121 127 121 120 119 113 108 105 102 97 90 83 72 64 62 63 65 68 73 81 92 104 113 133 165 182 204 242 289
260 270 256 264 147 95 96 144 49 30 89 99 105 109 99 113 120 120 122 122 127 130 124 122 120 115 111 109 105 99 91 82 73 63 55 54 56 59 62 64 63 30 247 232 228 234 245 259 272
255 243 266 260 111 108 111 83 93 113 107 111 109 110 110 125 127 127 127 126 127 125 124 125 124 121 116 110 104 100 96 88 76 66 59 55 50 45 41 40 33 354 291 272 263 259 260 263 268
256 254 264 289 55 142 115 87 83 42 259 107 113 113 130 136 135 133 130 124 125 133 124 129 128 127 123 115 104 98 89 78 69 61 52 46 44 34 28 23 25 10 346 312 290 276 270 270 273
254 279 277 268 209 123 90 98 129 136 332 131 129 131 147 143 142 140 135 131 132 130 132 122 109 111 120 97 81 79 76 69 61 51 44 32 35 24 8 10 359 353 348 342 328 318 304 288 281
243 271 257 257 75 328 112 115 137 136 62 71 106 139 139 143 144 145 141 138 137 138 142 151 128 45 72 352 52 15 32 27 13 15 42 41 22 6 343 340 349 347 340 342 347 350 338 321 310
233 244 275 73 91 44 248 140 147 81 29 95 111 127 139 145 150 148 150 149 144 148 152 130 154 123 152 245 329 359 25 357 8 7 345 8 9 317 300 319 342 338 344 341 324 341 343 341 1
220 260 194 331 122 186 105 61 97 85 40 125 132 140 147 149 152 152 156 156 151 148 132 150 177 155 129 224 325 352 326 351 338 320 290 281 270 249 305 317 318 326 333 338 330 332 323 335 343
275 349 12 8 39 58 23 125 102 110 210 142 141 141 146 151 154 160 167 147 144 135 134 107 170 214 183 173 173 217 227 267 304 307 316 332 347 339 316 305 293 311 306 315 307 315 313 314 290
256 127 330 270 88 68 349 297 124 156 171 133 131 136 141 140 125 101 105 107 103 131 137 151 116 155 215 204 180 215 235 260 239 271 312 311 277 269 281 289 293 314 316 304 293 290 285 281 282
281 107 229 275 79 127 149 234 114 120 128 131 129 127 125 125 118 106 108 110 110 134 137 170 147 265 199 286 216 199 229 250 304 314 282 263 292 288 286 300 296 292 297 299 292 289 282 274 270
329 261 202 251 169 146 163 168 124 139 131 125 125 119 122 121 128 134 122 127 117 165 183 165 64 266 277 196 240 311 220 241 241 239 258 259 269 280 279 288 286 279 275 273 279 274 274 268 271
248 239 237 210 214 200 285 355 127 150 140 137 136 135 133 131 132 130 131 133 138 147 153 167 152 130 297 198 188 141 203 199 223 238 243 248 263 273 276 278 280 281 277 284 270 269 277 287 302
224 253 233 259 171 211 185 237 153 169 162 154 152 153 146 136 133 131 132 132 131 149 133 145 161 143 108 143 168 192 212 226 238 244 260 263 268 275 290 294 283 283 289 283 279 280 282 283 281
214 211 250 242 179 192 219 239 140 177 182 164 176 175 162 159 152 145 140 136 132 139 160 165 152 140 163 169 165 146 186 259 297 276 270 296 303 322 326 322 325 324 319 309 304 300 297 297 299
271 296 223 255 83 164 205 243 175 181 189 187 192 178 179 163 155 154 150 141 135 142 144 138 132 130 135 132 159 140 41 30 16 4 2 352 348 351 351 347 354 353 353 345 338 329 321 305 309
269 272 286 174 108 160 280 258 257 172 196 224 189 187 187 153 165 168 159 148 138 139 137 135 137 134 120 115 124 121 122 108 42 1 354 360 359 359 360 353 358 11 3 341 350 349 341 339 339
260 256 258 266 130 303 265 259 246 209 192 217 205 195 188 170 178 176 170 161 148 139 139 135 126 132 128 104 84 74 86 106 118 11 345 352 2 7 2 4 4 6 8 348 355 353 353 346 343
247 230 253 302 185 256 211 247 228 220 193 205 217 196 184 170 175 176 174 167 161 149 147 137 125 117 125 116 124 121 146 49 82 342 29 6 3 4 7 9 10 13 14 354 354 357 5 359 356
249 332 214 241 253 267 267 234 273 174 188 209 200 198 184 173 172 179 180 172 164 154 147 140 132 120 112 102 111 125 116 73 60 73 46 26 4 346 10 18 17 13 13 1 0 4 1 358 358
57 289 285 257 271 257 251 262 275 251 178 204 196 199 190 181 174 178 179 173 170 162 153 146 134 122 110 99 93 87 100 130 79 58 92 51 350 337 8 15 18 13 12 15 23 12 5 350 348
281 256 242 234 233 243 247 228 238 131 112 62 176 184 176 175 176 178 174 178 178 172 166 158 142 126 113 97 87 88 83 83 105 104 73 101 10 343 354 7 3 5 1 359 19 8 3 339 339
210 235 254 269 282 309 80 285 285 120 130 123 126 137 179 174 179 180 181 187 187 184 179 175 162 151 145 128 112 105 89 88 46 68 71 19 27 6 338 353 352 354 355 348 356 0 356 343 349
273 251 257 279 300 287 282 216 127 114 97 85 114 168 199 164 174 179 183 192 190 187 188 190 183 180 170 168 148 127 151 162 242 44 75 287 310 340 315 349 341 342 338 342 335 344 350 349 337
254 284 292 208 254 267 270 263 104 156 151 127 131 179 185 177 184 186 191 193 186 194 196 188 204 196 188 192 176 254 17 62 1 354 333 336 333 326 336 330 325 319 321 333 335 340 349 322 322
222 232 247 275 290 302 297 276 140 109 105 121 136 188 176 189 203 194 194 183 196 199 198 192 197 204 203 191 191 197 172 232 281 313 329 320 310 300 300 306 308 304 303 298 307 323 331 312 318
234 258 236 223 240 248 260 267 62 97 304 160 179 193 190 190 200 202 193 188 201 203 203 199 194 200 209 210 208 220 233 248 279 282 277 291 291 298 300 300 300 304 300 295 300 314 311 308 314